Location: Usti nad Labem
(50.6670°N, 14.0330°E)
Time: 10:52:59
(UTC+01:00)

ISS - Visible Passes

Search period start: 29 November 2023 00:00
Search period end: 09 December 2023 00:00
Orbit: 416 x 418 km, 51.6° (Epoch: 29 November)

Date Brightness Start Highest point End Pass type
(mag) Time Alt. Az. Time Alt. Az. Time Alt. Az.
29 Nov -3.7 16:40:56 10° W 16:44:17 72° N 16:47:39 10° E visible
29 Nov -3.6 18:17:44 10° WNW 18:21:00 69° SSW 18:21:00 69° SSW visible
30 Nov -3.8 17:29:24 10° WNW 17:32:46 87° SSW 17:34:47 22° ESE visible
30 Nov -1.0 19:06:22 10° W 19:07:42 19° WSW 19:07:42 19° WSW visible
01 Dec -3.8 16:41:01 10° W 16:44:22 81° N 16:47:44 10° E visible
01 Dec -2.6 18:17:50 10° W 18:21:00 38° SSW 18:21:32 35° S visible
02 Dec -3.1 17:29:21 10° WNW 17:32:39 54° SSW 17:35:29 13° SE visible
02 Dec -0.7 19:07:06 10° WSW 19:08:25 13° SW 19:08:25 13° SW visible
03 Dec -3.5 16:40:52 10° WNW 16:44:13 72° SSW 16:47:34 10° ESE visible
03 Dec -1.3 18:18:03 10° W 18:20:35 20° SW 18:22:32 13° S visible
04 Dec -1.8 17:29:17 10° W 17:32:13 28° SSW 17:35:10 10° SSE visible
05 Dec -2.3 16:40:36 10° W 16:43:48 40° SSW 16:46:57 10° SE visible
06 Dec -0.6 17:29:34 10° WSW 17:31:28 14° SW 17:33:22 10° S visible
07 Dec -0.9 16:40:26 10° W 16:43:03 21° SW 16:45:38 10° SSE visible
